Tracking 19280 objects as of 13-Nov-2018
HD Live streaming from Space Station
objects crossing your sky now

ESSA 8 (TOS-F)

Track ESSA 8 (TOS-F) now!
10-day predictions
ESSA 8 (TOS-F) is classified as:


NORAD ID: 3615
Int'l Code: 1968-114A
Perigee: 1,420.9 km
Apogee: 1,470.7 km
Inclination: 101.3 °
Period: 114.6 minutes
Semi major axis: 7816 km
RCS: 0.8417 m2 (medium)
Launch date: December 15, 1968
Source: United States (US)
Launch site: AIR FORCE WESTERN TEST RANGE (AFWTR)
aabbcc
Your satellite tracking list
Your tracking list is empty




NASA's NSSDC Master Catalog

Two Line Element Set (TLE):
1  3615U 68114A   18317.55591976 -.00000041  00000-0  12176-4 0  9999
2  3615 101.2944 296.9385 0031810 355.3604 116.5109 12.56200964288847
Source of the keplerian elements: AFSPC